Regional Weather Roundup
Issued by NWS Mobile, AL

Home | Current Version | Previous Version | Text Only | Print | Product List | Glossary On
Versions: 1 2 3 4 5 6 7 8 9 10 11 12 13 14 15 16 17 18 19 20 21 22 23 24 25 26 27
000
ASUS44 KMOB 240212
RWRMOB
REGIONAL WEATHER ROUNDUP
NATIONAL WEATHER SERVICE MOBILE AL
800 PM CST TUE JAN 23 2018

NOTE: "FAIR" INDICATES FEW OR NO CLOUDS BELOW 12,000 FEET WITH NO
      SIGNIFICANT WEATHER AND/OR OBSTRUCTIONS TO VISIBILITY.

  * THESE STATIONS ARE PART OF THE UNIVERSITY OF SOUTH ALABAMA
    MESONET AND ARE NOT UNDER NWS OR FAA QUALITY CONTROL.

ALZ061>064-240300-
COASTAL ALABAMA

CITY           SKY/WX    TMP DP  RH WIND       PRES   REMARKS
MOBILE REG APT FAIR      51  29  42 NW6       30.21R
BROOKLEY FIELD FAIR      51  31  46 NW5       30.22R
USA CAMPUS*    NOT AVBL
DOG RIVER*     NOT AVBL


CITY           SKY/WX    TMP DP  RH WIND       PRES   REMARKS
GULF SHORES    FAIR      42  42 100 W9        30.20R

$$

ALZ051>060-240300-
INTERIOR SOUTHWEST AND SOUTH CENTRAL ALABAMA

CITY           SKY/WX    TMP DP  RH WIND       PRES   REMARKS
GREENVILLE     FAIR      49  30  48 NW6       30.17R
EVERGREEN      FAIR      42  35  76 CALM      30.18S
ATMORE*          N/A    N/A N/A N/A NW5         N/A
ANDALUSIA/OPP  FAIR      50  33  52 NW6       30.17R
ANDALUSIA*       N/A     48  34  57 NW3       30.16R
FLORALA APT    FAIR      44  35  70 CALM      30.19R
FLORALA*         N/A     50  34  53 W2        30.91R

$$

FLZ001>006-240300-
WESTERN FLORIDA PANHANDLE

CITY           SKY/WX    TMP DP  RH WIND       PRES   REMARKS
PENSACOLA      FAIR      53  33  46 NW5       30.18R
NAS PENSACOLA  MOCLDY    48  39  71 W3        30.19R
MILTON         MOCLDY    49  32  52 NW6       30.18R
WHTNG S FIELD  FAIR      51  33  50 NW7       30.18R


CITY           SKY/WX    TMP DP  RH WIND       PRES   REMARKS
JAY*             N/A     50  32  50 NW5       30.19R
DUKE FIELD     PTCLDY    48  34  58 NW5       30.16R
CRESTVIEW      FAIR      51  33  50 N5        30.19R
VALPARAISO     PTCLDY    46  36  67 NW6       30.16R
DESTIN         FAIR      55  39  54 NW5       30.17R

$$

MSZ076-079-240300-
INTERIOR SOUTHEAST MISSISSIPPI

CITY           SKY/WX    TMP DP  RH WIND       PRES   REMARKS
LEAKESVILLE*     N/A     48  28  46 NW2       30.23R
AGRICOLA*        N/A     50  28  43 CALM      30.21R

$$

MARINE OBSERVATIONS

STATION/POSITION TIME  TEMP    WIND        PRES    WAVE
                       AIR SEA DIR/SP/G            HT/PER
                 (UTC) (F)     (DEG/KT/KT) (MB)    (FT/S)
PASCAGOULA       0136   52     340/  7/  8 1022.6R
PETIT BOIS ISLND 0136   55     340/ 10/ 11 1023.4R
GRAND BAY        0045   55     340/  5     1023.0R
KATRINA CUT      0130   49     340/  9     1022.7R
CEDAR POINT      0130   54     350/  6     1022.4R
E DAUPHIN ISLAND 0200   55     330/  9/ 10 1022.3R
MIDDLE BAY LIGHT 0130   55     330/ 11     1022.0R
USCG MOBILE BAY  0136   54 52  320/  5/  7 1022.8R
STATE DOCKS      0136   53 51              1022.7R
MEAHER PARK      0130   53        CALM     1022.0R
WEEKS BAY        0045   47                 1021.0S
FORT MORGAN      0136   56     350/ 16/ 17   N/A
12 S ORANGE BCH  NOT AVBL
PENSACOLA BAY    0136   53 51  300/  3/  5 1022.1R
64 S DAUPHIN ISL 0150   62 66  320/ 16/ 19 1022.2S   3/ 4
67 S FORT MORGAN 0130   60                 1022.0R

$$

SELECTED LOCATIONS ACROSS THE REGION

CITY           SKY/WX    TMP DP  RH WIND       PRES   REMARKS
NEW ORLEANS    FAIR      52  38  58 NW7       30.23R
GULFPORT       FAIR      50  30  46 NW5       30.22R
PASCAGOULA AP  FAIR      43  33  68 CALM      30.21R
PASCAGOULA*      N/A     55  27  33 N2          N/A
HATTIESBURG    FAIR      47  32  56 CALM      30.24R
LAUREL         FAIR      45  31  58 NW3       30.24R
MERIDIAN       FAIR      48  33  56 NW9       30.24R
JACKSON        FAIR      43  32  65 N5        30.24R
MONTGOMERY     FAIR      46  31  55 NW5       30.19R
TROY           FAIR      46  32  58 NW7       30.18R
ASHFORD*         N/A     48  34  57 NW3       30.16R
DOTHAN         FAIR      49  33  54 MISG      30.19R
PANAMA CITY    FAIR      47  42  83 W3        30.15R

$$





USA.gov is the U.S. government's official web portal to all federal, state and local government web resources and services.